Regional Weather Roundup
Issued by NWS Goodland, KS

Home | Current Version | Previous Version | Text Only | Print | Product List | Glossary On
Versions: 1 2 3 4 5 6 7 8 9 10 11 12 13 14 15 16 17 18 19 20 21 22 23 24 25 26 27 28 29 30 31 32 33 34 35 36 37 38 39 40 41 42 43 44 45 46 47 48 49 50
000
ASUS43 KGLD 282008
RWRGLD

GOODLAND FORECAST AREA HOURLY WEATHER ROUNDUP
NATIONAL WEATHER SERVICE GOODLAND KS
200 PM MDT THU APR 28 2016

...OFFICIAL OBSERVATIONS...

CITY           SKY/WX    TMP DP  RH WIND       PRES   REMARKS
GOODLAND KS    CLOUDY    49  32  52 NE13      29.99S
HILL CITY KS   MOSUNNY   54  38  54 N8        30.01F
IMPERIAL NEB   LGT RAIN  44  34  67 E7        30.02S
MCCOOK NEB     LGT RAIN  51  36  56 VRB3      30.01S
AKRON CO       CLOUDY    38  34  85 E8        30.00S
BURLINGTON CO  CLOUDY    48  32  53 NE10      29.99S
LIMON CO       CLOUDY    38  33  82 E8        29.98S
$$

...UNOFFICIAL OBSERVATIONS...

CITY           SKY/WX    TMP DP  RH WIND       PRES   REMARKS
COLBY KS       CLOUDY    48  39  71 N10       30.01S
GOVE KS          N/A     52  32  46 MISG        N/A
LENORA KS        N/A     51  32  48 MISG        N/A
NORTON KS      RAIN      48  36  61 N12       29.98F
SHARON SPRINGS   N/A     51  36  56 E9          N/A
KIT CARSON CO    N/A     48  32  54 MISG        N/A
YUMA CO          N/A     39  36  88 NE6         N/A
$$




USA.gov is the U.S. government's official web portal to all federal, state and local government web resources and services.